EW9862 Weather Reports


time (UTC)temp
C
wind
direction
speed
KPH
gust
KPH
rain 1hr
cm
rain 24hr
cm
rain mn
cm
humidity
%
barometer
mb
20260503021535 10 314 0.0 3.2 0.00 0.56 0.03 88 1009.6
20260503020008 10 316 0.0 3.2 0.00 0.56 0.03 88 1009.8
20260503014526 10 349 0.0 4.8 0.00 0.56 0.03 88 1009.9
20260503013022 10 312 0.0 3.2 0.00 0.56 0.03 88 1010.0
20260503011520 10 320 0.0 0.0 0.00 0.56 0.03 88 1010.5
20260503010020 10 318 0.0 3.2 0.00 0.56 0.03 88 1010.7
20260503004516 10 307 0.0 1.6 0.00 0.56 0.03 88 1010.6
20260503003028 10 323 0.0 1.6 0.00 0.56 0.03 88 1010.6
20260503001525 10 314 0.0 1.6 0.00 0.56 0.03 88 1010.8
20260503000023 10 63 0.0 0.0 0.00 0.53 0.00 88 1011.0
20260502234522 10 63 0.0 0.0 0.00 0.53 0.00 88 1011.2
20260502233022 11 63 0.0 1.6 0.03 0.53 0.00 88 1011.2
20260502231517 11 63 0.0 1.6 0.05 0.53 0.00 88 1011.3
20260502230015 11 61 0.0 1.6 0.08 0.51 0.00 88 1011.4
20260502224510 11 169 0.0 0.0 0.10 0.51 0.51 88 1011.4
20260502223006 11 169 0.0 0.0 0.10 0.48 0.48 88 1011.5
20260502221505 11 169 0.0 0.0 0.13 0.46 0.46 88 1011.5
20260502220004 11 169 0.0 0.0 0.10 0.43 0.43 88 1011.6
20260502214519 11 169 0.0 0.0 0.10 0.38 0.38 88 1011.6
20260502213018 11 169 0.0 0.0 0.10 0.36 0.36 88 1011.6
20260502211515 11 169 0.0 0.0 0.10 0.33 0.33 88 1011.7
20260502210013 11 169 0.0 0.0 0.10 0.30 0.30 88 1011.8
20260502204508 11 169 0.0 0.0 0.10 0.28 0.28 88 1011.9
20260502203022 11 169 0.0 0.0 0.10 0.25 0.25 88 1012.1
20260502201525 11 169 0.0 0.0 0.08 0.20 0.20 88 1012.2
20260502200034 11 169 0.0 0.0 0.08 0.18 0.18 87 1012.3
20260502194515 12 169 0.0 0.0 0.08 0.15 0.15 87 1012.3
20260502193021 12 169 0.0 0.0 0.08 0.13 0.13 87 1012.4
20260502191510 12 169 0.0 0.0 0.08 0.10 0.10 86 1012.5
20260502190025 12 169 0.0 0.0 0.08 0.08 0.08 86 1012.6
20260502184525 12 169 0.0 1.6 0.05 0.08 0.08 85 1012.7
20260502183022 13 165 0.0 3.2 0.00 0.03 0.03 83 1012.8
20260502181518 13 165 1.6 4.8 0.00 0.00 0.00 78 1012.7
20260502163020 15 92 4.8 8.0 0.00 0.00 0.00 63 1012.9
20260502161512 16 100 1.6 8.0 0.00 0.00 0.00 63 1013.0
20260502151522 16 79 0.0 3.2 0.00 0.03 0.00 63 1013.8
20260502123010 16 224 1.6 12.9 0.00 0.15 0.00 58 1015.4
20260502113019 15 217 1.6 12.9 0.00 0.15 0.00 66 1016.3
20260502111518 15 240 4.8 12.9 0.00 0.15 0.00 65 1016.4
20260502110012 15 183 3.2 9.7 0.00 0.15 0.00 70 1016.4
20260502104511 13 306 0.0 4.8 0.00 0.15 0.00 71 1016.7
20260502103054 14 228 0.0 4.8 0.00 0.15 0.00 72 1016.7
20260502101533 14 320 0.0 3.2 0.00 0.15 0.00 75 1016.7
20260502091512 13 295 0.0 11.3 0.00 0.15 0.00 76 1017.5
20260502071529 11 233 0.0 1.6 0.00 0.13 0.00 87 1017.5
20260502070026 10 239 0.0 4.8 0.00 0.13 0.00 88 1017.6
20260502064525 9 219 1.6 3.2 0.00 0.13 0.00 88 1017.7
20260502063020 9 195 0.0 1.6 0.00 0.13 0.00 89 1017.6
20260502061518 8 214 0.0 0.0 0.00 0.13 0.00 89 1017.6
20260502060028 8 216 0.0 0.0 0.00 0.13 0.00 89 1017.6
20260502054541 8 216 0.0 1.6 0.00 0.13 0.00 89 1017.5
20260502053029 8 216 0.0 3.2 0.00 0.13 0.00 89 1017.4
20260502051503 8 216 0.0 3.2 0.00 0.13 0.00 89 1017.5
20260502050005 7 215 0.0 1.6 0.00 0.13 0.00 89 1017.4
20260502044505 7 216 0.0 3.2 0.00 0.13 0.00 89 1017.4
20260502043003 7 241 1.6 4.8 0.00 0.13 0.00 89 1017.3
20260502041511 7 223 0.0 4.8 0.00 0.13 0.00 89 1017.4
20260502040010 7 226 3.2 4.8 0.00 0.13 0.00 89 1017.5
20260502034510 7 225 0.0 3.2 0.00 0.13 0.00 89 1017.6
20260502033008 6 223 0.0 0.0 0.00 0.13 0.00 89 1017.7
20260502031504 6 223 0.0 0.0 0.00 0.13 0.00 89 1017.9
20260502030004 6 223 0.0 0.0 0.00 0.13 0.00 89 1018.0
20260502024516 7 222 0.0 3.2 0.00 0.13 0.00 89 1018.0
20260502023011 6 230 0.0 1.6 0.00 0.13 0.00 89 1018.1